{"data":{"norad_id":69468,"epoch":"2026-09-20T02:50:51.746208Z","epoch_age_seconds":58373,"freshness":"FRESH","line1":"1 69468U 26127AB  26263.11865447  .00025019  00000+0  72528-3 0  9999","line2":"2 69468  53.1588 167.4777 0001066  87.6567 272.4558 15.35420153 16139","mean_motion":15.35420153,"eccentricity":0.0001066,"inclination_deg":53.1588,"raan_deg":167.4777,"arg_perigee_deg":87.6567,"mean_anomaly_deg":272.4558,"bstar":0.00072528,"rev_number":1613,"period_min":93.785404417575,"perigee_km":458.94389891263,"apogee_km":460.401719964,"semimajor_km":6837.8098094383,"source":"CELESTRAK","updated_at":"2026-09-20T09:00:44.204081Z"}}